Weather in Essentukskaya

Russia / Stavropol Krai     44°01′35″N   42°52′34″E
temp.,
°C
wind,
m/s
gust,
m/s
humid.,
%
clouds,
%
prec.,
mm/h
press.,
hPa
HPBL,
m
10 april, sat
sat1000:00+3nw4683100 0.0 1019426
03:00+2wnw4685100 0.0 1019377
06:00+3nw2385100 0.0 1019274
09:00+3nw2384100 0.0 1019321
12:00+4nw2379100 0.0 1019389
15:00+5nnw2277100 0.0 1019502
18:00+5nnw2283100 0.0 1020365
21:00+4e1186100 0.0 1021248
11 april, sun
sun1100:00+4ne1188100 0.0 1020192
03:00+4ene1291100 0.0 1020136
06:00+4e1291100 0.0 1019204
09:00+5e2388100 0.0 1019423
12:00+6e2386100 0.0 1018491
15:00+7ese2280100 0.0 1018406
18:00+7sse1180100 0.0 1017140
21:00+6w1185100 0.0 101710
12 april, mon
mon1200:00+6w2286100 0.0 101712
03:00+5w338655 0.0 101737
06:00+5w358957 0.0 101896
09:00+10nw567197 0.0 1019679
12:00+9nw4582100 0.0 1020625
15:00+8nw3583100 0.0 1021501
18:00+7wnw2484100 0.0 1022322
21:00+7wnw2385100 0.1 1021193
13 april, tue
tue1300:00+7nw2387100 0.0 1020193
03:00+7wsw2289100 0.1 1021163
06:00+6w2290100 0.0 1021149
09:00+7nw2387100 0.1 1021221
12:00+7nw2492100 2.4 1021329
15:00+8nw3587100 2.5 1022503
18:00+7wnw3590100 0.3 1023427
21:00+6wnw3693100 0.6 1022352
14 april, wed
wed1400:00+6wnw3696100 4.7 1021278
03:00+6wnw3696100 9.4 1020418
06:00+6w4793100 5.2 1019648
09:00+6wnw3691100 7.2 1020503
12:00+7wnw4783100 0.4 1019532
15:00+10nw347363 0.6 1018814
18:00+9nnw227741 0.0 1018323
21:00+6wsw118923 0.0 101912